THORAD DELTA 1 DEB, 37148

Orbit data source: Space-Track

THORAD DELTA 1 DEB, 37148 is space debris in SSO originally from a launch on Fri, 15 Nov 1974 UTC launched from the Air Force Western Test Range (AFWTR). Debris objects in space refer to the collection of defunct objects orbiting the Earth. Examples of debris include non-operational satellites, rocket bodies, and fragments generated from explosions, collisions, or faulty payload assembly.

Loading next visibility...
Identifier
37148, 1974-089FH
Orbit
SSO
Country
Flag of USUS
Related business
Manufacturer
Unknown
Mission
Spacecraft
Bus & Motor
Unknown
Mass
Unknown
Launch date (UTC)
1974-11-15 (52 years ago)
Launch vehicle
Unknown
Launch site
Air Force Western Test Range (AFWTR)
Object type
Payload
Rocket body
Debris
Shape & HBR
Unknown shape, 0.1 m
Radar Cross Section
Medium (>0.1 m² and <1 m²)

Expand to show TLE details & history
Last TLE update: 12 hours ago

TLE from 12 hours ago
0 THORAD DELTA 1 DEB
1 37148U 74089FH  26170.02517656  .00018036  00000-0  62489-2 0  9998
2 37148 101.6735   4.7714 0016130  61.2754  90.2456 14.35638126796947
Epoch: 2026-06-19T00:36Z
TLE epoch observation values (Epoch: 2026-06-19T00:36:15.254Z)
Latitude
27.7024°
Longitude
-85.35769°
Altitude
776.314 km
Speed
7.468 km/s
True Right ascension
12h 43m 51s
True Declination
27° 33' 41"
Sunlit
Object was in daylight at epoch
Visualization orbit readout
Latitude
Unknown
Longitude
Unknown
Altitude
Unknown
Speed
Unknown
Apparent Right ascension
Unknown
Apparent Declination
Unknown
Sunlit
N/A
Visualization observer readout
Local Sidereal Time
22:59:34
Azimuth
Unknown
Elevation
Unknown
Doppler factor
Unknown
Orbital elements
Apogee altitude
781.781 km
Perigee altitude
758.72 km
Semi-major axis
7,148.388 km
Eccentricity
0.00161
Inclination
101.6735°
RAAN
4.7714°
Arg. of periapsis
61.2754°
True anomaly
90.43043°
Mean anomaly
90.2456°
Eccentric anomaly
90.33802°
Mean motion
3.59113 °/min
Orbital period
100.25 mins
BSTAR
0.0062489
Loading maneuver chart data...
Computing Atmospheric mass density...

Documentation

Showing up to 5 results
|